| time (UTC) | temp F | wind direction | speed MPH | gust MPH | rain 1hr in | rain 24hr in | rain mn in | humidity % | barometer mb |
| 20260505125018 | 66 | 244 | 5.0 | 13.0 | 0.00 | 0.00 | 0.00 | 68 | 1012.5 |
| 20260505124029 | 66 | 236 | 5.0 | 12.0 | 0.00 | 0.00 | 0.00 | 69 | 1012.4 |
| 20260505123021 | 66 | 227 | 3.0 | 9.0 | 0.00 | 0.00 | 0.00 | 70 | 1012.5 |
| 20260505122028 | 65 | 208 | 6.0 | 10.0 | 0.00 | 0.00 | 0.00 | 69 | 1012.3 |
| 20260505121035 | 64 | 235 | 3.0 | 6.0 | 0.00 | 0.00 | 0.00 | 71 | 1012.4 |
| 20260505120021 | 65 | 259 | 2.0 | 6.0 | 0.00 | 0.00 | 0.00 | 71 | 1012.3 |
| 20260505115036 | 64 | 247 | 2.0 | 7.0 | 0.00 | 0.00 | 0.00 | 71 | 1012.2 |
| 20260505114022 | 64 | 290 | 2.0 | 7.0 | 0.00 | 0.00 | 0.00 | 71 | 1012.0 |
| 20260505113031 | 63 | 205 | 2.0 | 6.0 | 0.00 | 0.00 | 0.00 | 72 | 1011.9 |
| 20260505112054 | 63 | 221 | 2.0 | 4.0 | 0.00 | 0.00 | 0.00 | 73 | 1012.0 |
| 20260505111021 | 63 | 190 | 0.0 | 4.0 | 0.00 | 0.00 | 0.00 | 73 | 1011.9 |
| 20260505102026 | 62 | 215 | 2.0 | 5.0 | 0.00 | 0.00 | 0.00 | 72 | 1011.4 |
| 20260505101033 | 62 | 251 | 2.0 | 9.0 | 0.00 | 0.00 | 0.00 | 72 | 1011.4 |
| 20260505100044 | 62 | 199 | 3.0 | 5.0 | 0.00 | 0.00 | 0.00 | 72 | 1011.3 |
| 20260505095032 | 62 | 190 | 2.0 | 8.0 | 0.00 | 0.00 | 0.00 | 72 | 1011.2 |
| 20260505094025 | 62 | 256 | 2.0 | 7.0 | 0.00 | 0.00 | 0.00 | 72 | 1011.2 |
| 20260505093032 | 62 | 234 | 3.0 | 6.0 | 0.00 | 0.00 | 0.00 | 72 | 1011.2 |
| 20260505092017 | 63 | 294 | 2.0 | 5.0 | 0.00 | 0.00 | 0.00 | 71 | 1011.2 |
| 20260505091027 | 63 | 292 | 1.0 | 7.0 | 0.00 | 0.00 | 0.00 | 71 | 1011.1 |
| 20260505090024 | 63 | 126 | 0.0 | 6.0 | 0.00 | 0.00 | 0.00 | 71 | 1011.1 |
| 20260505085052 | 63 | 252 | 2.0 | 6.0 | 0.00 | 0.00 | 0.00 | 71 | 1011.0 |
| 20260505084021 | 63 | 265 | 3.0 | 6.0 | 0.00 | 0.00 | 0.00 | 71 | 1011.1 |
| 20260505083031 | 63 | 196 | 0.0 | 6.0 | 0.00 | 0.00 | 0.00 | 71 | 1011.0 |
| 20260505082025 | 63 | 228 | 0.0 | 4.0 | 0.00 | 0.00 | 0.00 | 71 | 1010.9 |
| 20260505081032 | 63 | 263 | 0.0 | 6.0 | 0.00 | 0.00 | 0.00 | 71 | 1010.9 |
| 20260505080022 | 62 | 227 | 0.0 | 3.0 | 0.00 | 0.00 | 0.00 | 71 | 1010.9 |
| 20260505075015 | 62 | 209 | 0.0 | 3.0 | 0.00 | 0.00 | 0.00 | 71 | 1010.9 |
| 20260505074025 | 62 | 259 | 0.0 | 2.0 | 0.00 | 0.00 | 0.00 | 71 | 1010.9 |
| 20260505073054 | 62 | 239 | 1.0 | 3.0 | 0.00 | 0.00 | 0.00 | 70 | 1010.8 |
| 20260505072043 | 63 | 188 | 1.0 | 4.0 | 0.00 | 0.00 | 0.00 | 70 | 1010.7 |
| 20260505071029 | 63 | 217 | 2.0 | 4.0 | 0.00 | 0.00 | 0.00 | 70 | 1010.7 |
| 20260505070026 | 63 | 241 | 1.0 | 6.0 | 0.00 | 0.00 | 0.00 | 70 | 1010.7 |
| 20260505065032 | 63 | 142 | 2.0 | 4.0 | 0.00 | 0.00 | 0.00 | 70 | 1010.6 |
| 20260505064020 | 63 | 252 | 0.0 | 3.0 | 0.00 | 0.00 | 0.00 | 70 | 1010.5 |
| 20260505063051 | 63 | 246 | 0.0 | 5.0 | 0.00 | 0.00 | 0.00 | 69 | 1010.6 |
| 20260505062045 | 63 | 279 | 2.0 | 7.0 | 0.00 | 0.00 | 0.00 | 68 | 1010.6 |
| 20260505061051 | 63 | 291 | 1.0 | 6.0 | 0.00 | 0.00 | 0.00 | 68 | 1010.4 |
| 20260505060020 | 63 | 253 | 1.0 | 10.0 | 0.00 | 0.00 | 0.00 | 68 | 1010.4 |
| 20260505055027 | 63 | 149 | 3.0 | 10.0 | 0.00 | 0.00 | 0.00 | 68 | 1010.4 |
| 20260505054020 | 61 | 227 | 2.0 | 9.0 | 0.00 | 0.00 | 0.00 | 71 | 1010.4 |
| 20260505053028 | 57 | 211 | 2.0 | 4.0 | 0.00 | 0.00 | 0.00 | 76 | 1010.5 |
| 20260505052035 | 53 | 130 | 0.0 | 1.0 | 0.00 | 0.00 | 0.00 | 82 | 1010.4 |
| 20260505051041 | 53 | 87 | 0.0 | 1.0 | 0.00 | 0.00 | 0.00 | 81 | 1010.4 |
| 20260505041034 | 56 | 87 | 0.0 | 1.0 | 0.00 | 0.00 | 0.00 | 77 | 1010.5 |
| 20260505040025 | 56 | 87 | 0.0 | 1.0 | 0.00 | 0.00 | 0.00 | 75 | 1010.4 |
| 20260505035035 | 57 | 87 | 0.0 | 1.0 | 0.00 | 0.00 | 0.00 | 74 | 1010.4 |
| 20260505034025 | 58 | 88 | 0.0 | 0.0 | 0.00 | 0.00 | 0.00 | 73 | 1010.3 |
| 20260505033053 | 58 | 88 | 0.0 | 1.0 | 0.00 | 0.00 | 0.00 | 73 | 1010.3 |
| 20260505032040 | 58 | 88 | 1.0 | 2.0 | 0.00 | 0.00 | 0.00 | 72 | 1010.3 |
| 20260505031027 | 58 | 88 | 0.0 | 1.0 | 0.00 | 0.00 | 0.00 | 72 | 1010.3 |
| 20260505030019 | 58 | 87 | 0.0 | 1.0 | 0.00 | 0.00 | 0.00 | 73 | 1010.3 |
| 20260505025046 | 58 | 88 | 0.0 | 0.0 | 0.00 | 0.00 | 0.00 | 74 | 1010.3 |
| 20260505024015 | 58 | 88 | 0.0 | 3.0 | 0.00 | 0.00 | 0.00 | 72 | 1010.2 |
| 20260505023047 | 59 | 87 | 0.0 | 1.0 | 0.00 | 0.00 | 0.00 | 71 | 1010.4 |
| 20260505022031 | 59 | 87 | 0.0 | 2.0 | 0.00 | 0.00 | 0.00 | 71 | 1010.1 |
| 20260505021024 | 59 | 88 | 0.0 | 2.0 | 0.00 | 0.00 | 0.00 | 70 | 1010.1 |
| 20260505020030 | 60 | 87 | 0.0 | 1.0 | 0.00 | 0.00 | 0.00 | 70 | 1010.1 |
| 20260505015018 | 60 | 88 | 0.0 | 0.0 | 0.00 | 0.00 | 0.00 | 71 | 1010.0 |
| 20260505014025 | 60 | 88 | 0.0 | 0.0 | 0.00 | 0.00 | 0.00 | 69 | 1010.0 |
| 20260505013058 | 60 | 88 | 0.0 | 2.0 | 0.00 | 0.00 | 0.00 | 69 | 1009.9 |
| 20260505012021 | 61 | 88 | 0.0 | 2.0 | 0.00 | 0.00 | 0.00 | 67 | 1009.8 |
| 20260505011031 | 62 | 88 | 0.0 | 0.0 | 0.00 | 0.00 | 0.00 | 67 | 1009.6 |
| 20260505010019 | 63 | 88 | 0.0 | 0.0 | 0.00 | 0.00 | 0.00 | 66 | 1009.6 |
| 20260505005035 | 63 | 87 | 0.0 | 2.0 | 0.00 | 0.00 | 0.00 | 63 | 1009.6 |
| 20260505004029 | 64 | 5 | 0.0 | 2.0 | 0.00 | 0.00 | 0.00 | 62 | 1009.4 |
| 20260505003038 | 65 | 5 | 0.0 | 2.0 | 0.00 | 0.00 | 0.00 | 60 | 1009.6 |
| 20260505002024 | 66 | 309 | 0.0 | 1.0 | 0.00 | 0.00 | 0.00 | 58 | 1009.5 |
| 20260505001031 | 68 | 177 | 0.0 | 2.0 | 0.00 | 0.00 | 0.00 | 55 | 1009.3 |
| 20260505000024 | 70 | 155 | 0.0 | 2.0 | 0.00 | 0.00 | 0.00 | 51 | 1009.2 |
| 20260504235031 | 71 | 113 | 2.0 | 3.0 | 0.00 | 0.00 | 0.00 | 49 | 1009.4 |
| 20260504234039 | 72 | 117 | 2.0 | 3.0 | 0.00 | 0.00 | 0.00 | 46 | 1009.0 |
| 20260504233030 | 73 | 111 | 0.0 | 3.0 | 0.00 | 0.00 | 0.00 | 46 | 1008.9 |
| 20260504232024 | 74 | 112 | 1.0 | 4.0 | 0.00 | 0.00 | 0.00 | 45 | 1008.8 |
| 20260504231051 | 75 | 169 | 0.0 | 4.0 | 0.00 | 0.00 | 0.00 | 43 | 1009.0 |
| 20260504230020 | 75 | 227 | 0.0 | 3.0 | 0.00 | 0.00 | 0.00 | 42 | 1009.2 |
| 20260504225050 | 75 | 284 | 2.0 | 6.0 | 0.00 | 0.00 | 0.00 | 42 | 1009.1 |
| 20260504224021 | 76 | 211 | 3.0 | 11.0 | 0.00 | 0.00 | 0.00 | 40 | 1009.1 |
| 20260504223029 | 76 | 265 | 2.0 | 6.0 | 0.00 | 0.00 | 0.00 | 42 | 1009.2 |
| 20260504222035 | 76 | 190 | 4.0 | 9.0 | 0.00 | 0.00 | 0.00 | 40 | 1009.3 |
| 20260504221025 | 76 | 238 | 2.0 | 12.0 | 0.00 | 0.00 | 0.00 | 41 | 1009.2 |
| 20260504220020 | 76 | 203 | 4.0 | 7.0 | 0.00 | 0.00 | 0.00 | 41 | 1009.3 |
| 20260504215031 | 76 | 251 | 4.0 | 7.0 | 0.00 | 0.00 | 0.00 | 39 | 1009.3 |
| 20260504214018 | 76 | 258 | 3.0 | 9.0 | 0.00 | 0.00 | 0.00 | 41 | 1009.5 |
| 20260504213030 | 76 | 230 | 3.0 | 10.0 | 0.00 | 0.00 | 0.00 | 38 | 1009.6 |
| 20260504212023 | 77 | 230 | 5.0 | 12.0 | 0.00 | 0.00 | 0.00 | 39 | 1009.5 |
| 20260504211031 | 77 | 219 | 3.0 | 14.0 | 0.00 | 0.00 | 0.00 | 37 | 1009.5 |
| 20260504210039 | 77 | 259 | 5.0 | 10.0 | 0.00 | 0.00 | 0.00 | 36 | 1009.5 |
| 20260504205030 | 76 | 220 | 4.0 | 10.0 | 0.00 | 0.00 | 0.00 | 40 | 1009.5 |
| 20260504204037 | 75 | 194 | 3.0 | 8.0 | 0.00 | 0.00 | 0.00 | 38 | 1009.5 |
| 20260504203025 | 76 | 202 | 6.0 | 11.0 | 0.00 | 0.00 | 0.00 | 37 | 1009.4 |
| 20260504202035 | 77 | 237 | 6.0 | 12.0 | 0.00 | 0.00 | 0.00 | 35 | 1009.4 |
| 20260504201026 | 78 | 231 | 4.0 | 9.0 | 0.00 | 0.00 | 0.00 | 35 | 1009.4 |
| 20260504200035 | 77 | 205 | 3.0 | 8.0 | 0.00 | 0.00 | 0.00 | 35 | 1009.5 |
| 20260504195044 | 77 | 184 | 2.0 | 14.0 | 0.00 | 0.00 | 0.00 | 37 | 1009.6 |
| 20260504194033 | 77 | 260 | 3.0 | 11.0 | 0.00 | 0.00 | 0.00 | 34 | 1009.8 |
| 20260504193028 | 77 | 218 | 3.0 | 10.0 | 0.00 | 0.00 | 0.00 | 35 | 1009.9 |
| 20260504192035 | 77 | 258 | 4.0 | 9.0 | 0.00 | 0.00 | 0.00 | 34 | 1009.9 |
| 20260504191022 | 77 | 252 | 6.0 | 10.0 | 0.00 | 0.00 | 0.00 | 35 | 1010.2 |
| 20260504190029 | 75 | 103 | 2.0 | 14.0 | 0.00 | 0.00 | 0.00 | 38 | 1010.4 |
| 20260504185023 | 76 | 207 | 6.0 | 13.0 | 0.00 | 0.00 | 0.00 | 38 | 1010.5 |
| 20260504184030 | 75 | 197 | 4.0 | 7.0 | 0.00 | 0.00 | 0.00 | 37 | 1010.7 |
| 20260504183041 | 75 | 265 | 5.0 | 12.0 | 0.00 | 0.00 | 0.00 | 39 | 1010.7 |
| 20260504182030 | 75 | 137 | 5.0 | 9.0 | 0.00 | 0.00 | 0.00 | 38 | 1011.0 |
| 20260504181021 | 74 | 243 | 6.0 | 10.0 | 0.00 | 0.00 | 0.00 | 37 | 1011.1 |
| 20260504180030 | 74 | 166 | 4.0 | 10.0 | 0.00 | 0.00 | 0.00 | 40 | 1011.3 |
| 20260504175019 | 74 | 161 | 4.0 | 9.0 | 0.00 | 0.00 | 0.00 | 38 | 1011.4 |
| 20260504174025 | 73 | 269 | 5.0 | 9.0 | 0.00 | 0.00 | 0.00 | 38 | 1011.4 |
| 20260504173037 | 73 | 209 | 4.0 | 9.0 | 0.00 | 0.00 | 0.00 | 40 | 1011.5 |
| 20260504172023 | 72 | 210 | 3.0 | 8.0 | 0.00 | 0.00 | 0.00 | 37 | 1011.7 |
| 20260504171030 | 72 | 256 | 4.0 | 11.0 | 0.00 | 0.00 | 0.00 | 41 | 1011.9 |
| 20260504151032 | 66 | 254 | 1.0 | 5.0 | 0.00 | 0.00 | 0.00 | 49 | 1013.1 |
| 20260504141027 | 62 | 298 | 4.0 | 10.0 | 0.00 | 0.00 | 0.00 | 56 | 1013.4 |